TimeCDT,TemperatureF,Dew PointF,Humidity,Sea Level PressureIn,VisibilityMPH,Wind Direction,Wind SpeedMPH,Gust SpeedMPH,PrecipitationIn,Events,Conditions,WindDirDegrees,DateUTC
12:15 AM,73.4,57.2,57,30.00,10.0,NNE,6.9,-,N/A,,Scattered Clouds,20,2013-09-13 05:15:00
12:35 AM,73.4,57.2,57,30.00,10.0,NNE,5.8,-,N/A,,Clear,20,2013-09-13 05:35:00
12:55 AM,73.4,57.2,57,30.00,10.0,NNE,5.8,-,N/A,,Mostly Cloudy,20,2013-09-13 05:55:00
1:15 AM,71.6,57.2,60,30.00,10.0,NNE,4.6,-,N/A,,Mostly Cloudy,20,2013-09-13 06:15:00
1:35 AM,71.6,55.4,57,30.00,10.0,NNE,6.9,-,N/A,,Clear,20,2013-09-13 06:35:00
1:55 AM,71.6,55.4,57,30.00,10.0,North,6.9,-,N/A,,Clear,10,2013-09-13 06:55:00
2:15 AM,71.6,53.6,53,30.00,10.0,NNE,15.0,-,N/A,,Clear,20,2013-09-13 07:15:00
2:35 AM,71.6,51.8,50,30.00,10.0,NNE,11.5,18.4,N/A,,Clear,20,2013-09-13 07:35:00
3:15 AM,69.8,51.8,53,30.00,10.0,NNE,10.4,-,N/A,,Clear,30,2013-09-13 08:15:00
3:35 AM,69.8,50.0,49,30.00,10.0,NNE,6.9,-,N/A,,Clear,30,2013-09-13 08:35:00
3:55 AM,69.8,50.0,49,30.01,10.0,NNE,9.2,-,N/A,,Clear,20,2013-09-13 08:55:00
4:15 AM,68.0,48.2,49,30.01,10.0,NNE,9.2,-,N/A,,Clear,20,2013-09-13 09:15:00
4:35 AM,68.0,48.2,49,30.01,10.0,NNE,9.2,-,N/A,,Clear,30,2013-09-13 09:35:00
4:55 AM,66.2,48.2,52,30.01,10.0,NNE,9.2,-,N/A,,Clear,20,2013-09-13 09:55:00
5:15 AM,66.2,48.2,52,30.02,10.0,NNE,8.1,-,N/A,,Clear,20,2013-09-13 10:15:00
5:35 AM,66.2,46.4,49,30.02,10.0,NNE,8.1,-,N/A,,Clear,30,2013-09-13 10:35:00
5:55 AM,66.2,46.4,49,30.02,10.0,NNE,10.4,-,N/A,,Clear,20,2013-09-13 10:55:00
6:15 AM,66.2,46.4,49,30.03,10.0,NNE,9.2,-,N/A,,Clear,20,2013-09-13 11:15:00
6:35 AM,64.4,46.4,52,30.03,10.0,NNE,9.2,-,N/A,,Clear,20,2013-09-13 11:35:00
6:55 AM,64.4,46.4,52,30.04,10.0,NNE,8.1,-,N/A,,Clear,20,2013-09-13 11:55:00
7:15 AM,64.4,46.4,52,30.04,10.0,NNE,9.2,-,N/A,,Clear,30,2013-09-13 12:15:00
7:35 AM,66.2,46.4,49,30.04,10.0,NNE,11.5,-,N/A,,Clear,30,2013-09-13 12:35:00
7:55 AM,66.2,46.4,49,30.04,10.0,NE,10.4,-,N/A,,Clear,40,2013-09-13 12:55:00
8:15 AM,66.2,46.4,49,30.04,9.0,NNE,13.8,-,N/A,,Clear,30,2013-09-13 13:15:00
8:35 AM,66.2,48.2,52,30.04,9.0,NNE,12.7,-,N/A,,Clear,30,2013-09-13 13:35:00
8:55 AM,69.8,48.2,46,30.05,6.0,NE,11.5,-,N/A,,Clear,40,2013-09-13 13:55:00
9:15 AM,69.8,48.2,46,30.06,8.0,NNE,13.8,-,N/A,,Clear,30,2013-09-13 14:15:00
9:35 AM,69.8,48.2,46,30.06,10.0,NE,12.7,-,N/A,,Clear,40,2013-09-13 14:35:00
9:55 AM,71.6,48.2,43,30.06,8.0,NNE,12.7,-,N/A,,Clear,30,2013-09-13 14:55:00
10:15 AM,71.6,48.2,43,30.06,9.0,NE,15.0,-,N/A,,Clear,40,2013-09-13 15:15:00
10:35 AM,73.4,48.2,41,30.06,9.0,NNE,9.2,-,N/A,,Clear,20,2013-09-13 15:35:00
10:55 AM,73.4,48.2,41,30.06,6.0,NNE,9.2,-,N/A,,Clear,20,2013-09-13 15:55:00
11:15 AM,75.2,48.2,38,30.06,5.0,NNE,9.2,-,N/A,,Clear,20,2013-09-13 16:15:00
11:35 AM,75.2,46.4,36,30.06,2.0,NE,13.8,19.6,N/A,,Scattered Clouds,40,2013-09-13 16:35:00
11:55 AM,75.2,46.4,36,30.06,10.0,NE,13.8,17.3,N/A,,Clear,50,2013-09-13 16:55:00
12:15 PM,75.2,48.2,38,30.05,3.0,NE,10.4,-,N/A,,Clear,50,2013-09-13 17:15:00
12:35 PM,77.0,48.2,36,30.04,2.0,North,11.5,19.6,N/A,,Scattered Clouds,10,2013-09-13 17:35:00
12:55 PM,77.0,46.4,34,30.04,3.0,NNE,13.8,18.4,N/A,,Partly Cloudy,30,2013-09-13 17:55:00
1:15 PM,78.8,48.2,34,30.03,5.0,NNE,16.1,20.7,N/A,,Partly Cloudy,30,2013-09-13 18:15:00
1:35 PM,78.8,48.2,34,30.03,2.5,NNE,6.9,-,N/A,,Partly Cloudy,20,2013-09-13 18:35:00
1:55 PM,78.8,48.2,34,30.02,2.0,NE,10.4,16.1,N/A,,Scattered Clouds,50,2013-09-13 18:55:00
2:15 PM,78.8,48.2,34,30.01,2.5,NNE,12.7,18.4,N/A,,Partly Cloudy,20,2013-09-13 19:15:00
2:35 PM,78.8,46.4,32,30.01,6.0,North,11.5,20.7,N/A,,Clear,10,2013-09-13 19:35:00
2:55 PM,78.8,46.4,32,30.01,1.8,NE,11.5,18.4,N/A,,Scattered Clouds,40,2013-09-13 19:55:00
3:15 PM,78.8,46.4,32,30.00,5.0,NE,13.8,19.6,N/A,,Clear,40,2013-09-13 20:15:00
3:35 PM,78.8,46.4,32,30.00,5.0,NNE,13.8,18.4,N/A,,Clear,30,2013-09-13 20:35:00
3:55 PM,78.8,46.4,32,30.00,2.5,ENE,10.4,-,N/A,,Clear,60,2013-09-13 20:55:00
4:15 PM,78.8,46.4,32,30.00,3.0,NNE,11.5,16.1,N/A,,Partly Cloudy,20,2013-09-13 21:15:00
4:55 PM,77.0,46.4,34,30.00,6.0,NE,11.5,-,N/A,,Scattered Clouds,40,2013-09-13 21:55:00
5:15 PM,75.2,46.4,36,30.00,2.0,NNE,15.0,-,N/A,,Mostly Cloudy,30,2013-09-13 22:15:00
5:35 PM,75.2,46.4,36,30.00,8.0,North,17.3,-,N/A,,Scattered Clouds,10,2013-09-13 22:35:00
5:55 PM,75.2,46.4,36,30.01,5.0,NE,12.7,-,N/A,,Scattered Clouds,50,2013-09-13 22:55:00
6:16 PM,73.4,46.4,38,30.00,4.0,NNE,12.7,19.6,N/A,,Partly Cloudy,30,2013-09-13 23:16:00
6:35 PM,73.4,46.4,38,30.00,10.0,NNE,8.1,-,N/A,,Clear,30,2013-09-13 23:35:00
6:55 PM,71.6,46.4,41,30.00,10.0,NE,8.1,-,N/A,,Partly Cloudy,40,2013-09-13 23:55:00
7:15 PM,69.8,46.4,43,30.01,10.0,NNE,8.1,-,N/A,,Clear,30,2013-09-14 00:15:00
7:35 PM,68.0,44.6,43,30.01,10.0,NNE,8.1,-,N/A,,Clear,30,2013-09-14 00:35:00
7:55 PM,68.0,44.6,43,30.02,10.0,NE,8.1,-,N/A,,Clear,40,2013-09-14 00:55:00
8:15 PM,68.0,44.6,43,30.03,10.0,NE,8.1,-,N/A,,Clear,50,2013-09-14 01:15:00
8:35 PM,66.2,44.6,46,30.04,10.0,NE,6.9,-,N/A,,Clear,40,2013-09-14 01:35:00
8:55 PM,66.2,44.6,46,30.04,10.0,NE,5.8,-,N/A,,Clear,50,2013-09-14 01:55:00
9:15 PM,64.4,44.6,49,30.04,10.0,NE,4.6,-,N/A,,Clear,40,2013-09-14 02:15:00
9:35 PM,64.4,44.6,49,30.05,10.0,NE,4.6,-,N/A,,Clear,50,2013-09-14 02:35:00
9:55 PM,64.4,44.6,49,30.05,10.0,NE,3.5,-,N/A,,Clear,40,2013-09-14 02:55:00
10:15 PM,64.4,44.6,49,30.06,10.0,ENE,3.5,-,N/A,,Clear,60,2013-09-14 03:15:00
10:35 PM,62.6,44.6,52,30.06,10.0,NE,3.5,-,N/A,,Clear,50,2013-09-14 03:35:00
10:55 PM,62.6,44.6,52,30.05,10.0,NE,4.6,-,N/A,,Clear,50,2013-09-14 03:55:00
11:15 PM,60.8,44.6,55,30.05,10.0,NE,4.6,-,N/A,,Clear,50,2013-09-14 04:15:00
11:35 PM,60.8,44.6,55,30.06,10.0,NE,3.5,-,N/A,,Clear,50,2013-09-14 04:35:00
11:55 PM,60.8,44.6,55,30.06,10.0,NE,3.5,-,N/A,,Clear,40,2013-09-14 04:55:00